Location: Andershausen
(51.8462°N, 9.8595°E)
Time: 23:35:55
(UTC+00:00)

Cosmos 1802 Rocket - Pass Details

Date: 18 November 2025
Orbit: 953 x 1011 km, 82.9° (Epoch: 04 December)

Event Time Altitude Azimuth Distance (km) Brightness Sun altitude
Rises 16:09:57 0° 191° (S) 3,731 7.6 -6.9°
Reaches altitude 10° 16:12:28 10° 192° (SSW) 2,785 6.9 -7.3°
Maximum altitude 16:18:54 82° 280° (W) 1,026 4.2 -8.2°
Drops below altitude 10° 16:25:21 10° 9° (N) 2,789 6.1 -9.1°
Sets 16:27:54 0° 10° (N) 3,737 6.8 -9.5°
